Wise, VA

3:18 AM EDT on August 23, 2019 (GMT -0400)
Lonesome Pine

Weather History for KLNP - July, 2019

Change the Weather History Date:

Friday, July 19, 2019

  Actual Average Record
Temperature  
Mean Temperature 78 °F -  
Max Temperature 86 °F 78 °F 87 °F (2006)
Min Temperature 69 °F 60 °F 57 °F (2018)
Cooling Degree Days 12    
Growing Degree Days 28 (Base 50)    
Moisture  
Dew Point 70 °F    
Average Humidity 85    
Maximum Humidity 100    
Minimum Humidity 58    
Precipitation  
Precipitation 0.00 in - - ()
Sea Level Pressure  
Sea Level Pressure 30.17 in    
Wind  
Wind Speed 3 mph (SW)    
Max Wind Speed 8 mph    
Max Gust Speed -    
Visibility 7 miles    
Events Fog    
Averages and records for this station are not official NWS values.
T = Trace of Precipitation, MM = Missing Value Source: NWS Daily Summary

Daily Weather History Graph

Daily Weather History Graph

Search for Another Location

Airport or City:

Astronomy

Jul. 19, 2019 Rise Set
Actual Time 6:25 AM EDT 8:47 PM EDT
Civil Twilight 5:55 AM EDT 9:17 PM EDT
Nautical Twilight 5:18 AM EDT 9:53 PM EDT
Astronomical Twilight 4:38 AM EDT 10:33 PM EDT
Moon 10:48 PM EDT (7/19) 8:48 AM EDT (7/19)
Length of Visible Light 15h 21m
Length of Day
14h 22m
Waning Gibbous, 93% of the Moon is Illuminated
Jul 19
Waning Gibbous
Jul 24
Last Quarter
Jul 31
New
Aug 7
First Quarter
Aug 15
Full

Hourly Weather History & Observations

Time (EDT) Temp. Heat Index Dew Point Humidity Pressure Visibility Wind Dir Wind Speed Gust Speed Precip Events Conditions
12:15 AM 69.8 °F - 69.8 °F 100% 30.14 in 10.0 mi WSW 5.8 mph - N/A   Clear
12:35 AM 69.8 °F - 69.8 °F 100% 30.14 in 10.0 mi SW 6.9 mph - N/A   Clear
12:55 AM 69.8 °F - 69.8 °F 100% 30.15 in 10.0 mi WSW 5.8 mph - N/A   Mostly Cloudy
1:15 AM 69.8 °F - 69.8 °F 100% 30.15 in 7.0 mi WSW 4.6 mph - N/A   Mostly Cloudy
1:35 AM 71.6 °F - 71.6 °F 100% 30.15 in 10.0 mi SW 5.8 mph - N/A   Mostly Cloudy
1:55 AM 69.8 °F - 69.8 °F 100% 30.16 in 5.0 mi Calm Calm - N/A   Scattered Clouds
2:15 AM 69.8 °F - 69.8 °F 100% 30.16 in 4.0 mi Calm Calm - N/A   Clear
2:35 AM 69.8 °F - 69.8 °F 100% 30.16 in 1.2 mi Calm Calm - N/A   Mist
2:55 AM 69.8 °F - 69.8 °F 100% 30.16 in 0.8 mi SW 3.5 mph - N/A   Mist
3:15 AM 69.8 °F - 69.8 °F 100% 30.15 in 4.0 mi WSW 4.6 mph - N/A   Clear
3:35 AM 69.8 °F - 69.8 °F 100% 30.14 in 0.5 mi WSW 4.6 mph - N/A Fog Fog
3:55 AM 69.8 °F - 69.8 °F 100% 30.15 in 0.2 mi WSW 6.9 mph - N/A Fog Fog
4:15 AM 71.6 °F - 71.6 °F 100% 30.14 in 0.2 mi WSW 5.8 mph - N/A Fog Fog
4:35 AM 69.8 °F - 69.8 °F 100% 30.14 in 0.2 mi WSW 5.8 mph - N/A Fog Fog
4:55 AM 69.8 °F - 69.8 °F 100% 30.15 in 0.2 mi West 3.5 mph - N/A Fog Fog
5:15 AM 69.8 °F - 69.8 °F 100% 30.15 in 0.2 mi WSW 4.6 mph - N/A Fog Fog
5:35 AM 69.8 °F - 69.8 °F 100% 30.15 in 0.2 mi SW 3.5 mph - N/A Fog Fog
5:55 AM 69.8 °F - 69.8 °F 100% 30.16 in 0.2 mi SW 3.5 mph - N/A Fog Fog
6:15 AM 69.8 °F - 69.8 °F 100% 30.16 in 0.2 mi Calm Calm - N/A Fog Fog
6:35 AM 69.8 °F - 69.8 °F 100% 30.16 in 0.2 mi Calm Calm - N/A Fog Fog
6:55 AM 69.8 °F - 69.8 °F 100% 30.17 in 0.2 mi Calm Calm - N/A Fog Fog
7:15 AM 69.8 °F - 69.8 °F 100% 30.17 in 0.5 mi South 3.5 mph - N/A Fog Fog
7:35 AM 69.8 °F - 69.8 °F 100% 30.18 in 4.0 mi Calm Calm - N/A   Overcast
7:55 AM 71.6 °F - 71.6 °F 100% 30.18 in 5.0 mi Calm Calm - N/A   Overcast
8:15 AM 71.6 °F - 71.6 °F 100% 30.19 in 7.0 mi Calm Calm - N/A   Overcast
8:35 AM 71.6 °F - 71.6 °F 100% 30.20 in 4.0 mi Calm Calm - N/A   Overcast
8:55 AM 71.6 °F - 71.6 °F 100% 30.20 in 7.0 mi WSW 4.6 mph - N/A   Mostly Cloudy
9:15 AM 71.6 °F - 71.6 °F 100% 30.21 in 5.0 mi WSW 4.6 mph - N/A   Overcast
9:35 AM 73.4 °F - 73.4 °F 100% 30.21 in 10.0 mi WSW 4.6 mph - N/A   Mostly Cloudy
9:55 AM 73.4 °F - 73.4 °F 100% 30.21 in 10.0 mi SW 3.5 mph - N/A   Scattered Clouds
10:35 AM 77.0 °F - 73.4 °F 89% 30.21 in 10.0 mi SW 3.5 mph - N/A   Overcast
10:55 AM 77.0 °F - 69.8 °F 78% 30.21 in 10.0 mi SSW 3.5 mph - N/A   Mostly Cloudy
11:15 AM 77.0 °F - 69.8 °F 78% 30.21 in 10.0 mi SW 3.5 mph - N/A   Mostly Cloudy
11:35 AM 78.8 °F - 69.8 °F 74% 30.21 in 10.0 mi WSW 8.1 mph - N/A   Overcast
11:55 AM 78.8 °F - 69.8 °F 74% 30.22 in 10.0 mi Calm Calm - N/A   Scattered Clouds
12:15 PM 80.6 °F 83.2 °F 68.0 °F 65% 30.22 in 10.0 mi Calm Calm - N/A   Scattered Clouds
12:35 PM 80.6 °F 83.2 °F 68.0 °F 65% 30.22 in 10.0 mi SSE 3.5 mph - N/A   Mostly Cloudy
12:55 PM 80.6 °F 83.2 °F 68.0 °F 65% 30.21 in 10.0 mi SW 5.8 mph - N/A   Overcast
1:15 PM 80.6 °F 83.2 °F 68.0 °F 65% 30.21 in 10.0 mi SSW 3.5 mph - N/A   Overcast
1:35 PM 82.4 °F 85.4 °F 68.0 °F 62% 30.21 in 10.0 mi Calm Calm - N/A   Mostly Cloudy
1:55 PM 82.4 °F 85.4 °F 68.0 °F 62% 30.20 in 10.0 mi WSW 3.5 mph - N/A   Mostly Cloudy
2:15 PM 82.4 °F 86.3 °F 69.8 °F 66% 30.19 in 10.0 mi East 4.6 mph - N/A   Mostly Cloudy
2:30 PM 80.6 °F 83.9 °F 69.8 °F 70% 30.19 in 10.0 mi SE 3.5 mph - N/A   Overcast
2:55 PM 82.4 °F 86.3 °F 69.8 °F 66% 30.18 in 10.0 mi Calm Calm - N/A   Overcast
3:15 PM 84.2 °F 88.4 °F 69.8 °F 62% 30.17 in 10.0 mi Calm Calm - N/A   Mostly Cloudy
3:35 PM 84.2 °F 88.4 °F 69.8 °F 62% 30.17 in 10.0 mi SSE 4.6 mph - N/A   Scattered Clouds
3:55 PM 84.2 °F 88.4 °F 69.8 °F 62% 30.16 in 10.0 mi Calm Calm - N/A   Scattered Clouds
4:10 PM 86.0 °F 90.4 °F 69.8 °F 58% 30.16 in 10.0 mi Calm Calm - N/A   Scattered Clouds
4:35 PM 84.2 °F 88.4 °F 69.8 °F 62% 30.16 in 10.0 mi South 4.6 mph - N/A   Clear
4:55 PM 82.4 °F 86.3 °F 69.8 °F 66% 30.16 in 10.0 mi Calm Calm - N/A   Scattered Clouds
5:15 PM 82.4 °F 86.3 °F 69.8 °F 66% 30.15 in 10.0 mi ESE 3.5 mph - N/A   Mostly Cloudy
5:35 PM 82.4 °F 86.3 °F 69.8 °F 66% 30.15 in 10.0 mi SW 3.5 mph - N/A   Mostly Cloudy
5:55 PM 84.2 °F 88.4 °F 69.8 °F 62% 30.14 in 10.0 mi SW 5.8 mph - N/A   Scattered Clouds
6:10 PM 82.4 °F 86.3 °F 69.8 °F 66% 30.15 in 10.0 mi SSW 4.6 mph - N/A   Scattered Clouds
6:35 PM 82.4 °F 86.3 °F 69.8 °F 66% 30.14 in 10.0 mi South 4.6 mph - N/A   Mostly Cloudy
6:50 PM 84.2 °F 88.4 °F 69.8 °F 62% 30.14 in 10.0 mi SSW 5.8 mph - N/A   Overcast
7:15 PM 84.2 °F 88.4 °F 69.8 °F 62% 30.14 in 10.0 mi WSW 4.6 mph - N/A   Scattered Clouds
7:35 PM 82.4 °F 86.3 °F 69.8 °F 66% 30.14 in 10.0 mi West 3.5 mph - N/A   Clear
7:55 PM 80.6 °F 83.9 °F 69.8 °F 70% 30.14 in 10.0 mi West 3.5 mph - N/A   Clear
8:10 PM 78.8 °F - 69.8 °F 74% 30.14 in 10.0 mi Calm Calm - N/A   Clear
8:35 PM 78.8 °F - 69.8 °F 74% 30.15 in 10.0 mi West 3.5 mph - N/A   Clear
8:55 PM 78.8 °F - 69.8 °F 74% 30.15 in 10.0 mi Calm Calm - N/A   Clear
9:15 PM 77.0 °F - 69.8 °F 78% 30.15 in 10.0 mi Calm Calm - N/A   Clear
9:35 PM 77.0 °F - 69.8 °F 78% 30.16 in 10.0 mi Calm Calm - N/A   Clear
9:55 PM 75.2 °F - 75.2 °F 100% 30.16 in 10.0 mi Calm Calm - N/A   Clear
10:15 PM 75.2 °F - 75.2 °F 100% 30.17 in 10.0 mi Calm Calm - N/A   Clear
10:35 PM 73.4 °F - 73.4 °F 100% 30.17 in 10.0 mi SSW 3.5 mph - N/A   Clear
10:55 PM 73.4 °F - 73.4 °F 100% 30.17 in 10.0 mi Calm Calm - N/A   Clear
11:15 PM 73.4 °F - 73.4 °F 100% 30.17 in 10.0 mi Calm Calm - N/A   Clear
11:35 PM 73.4 °F - 73.4 °F 100% 30.17 in 10.0 mi Calm Calm - N/A   Clear
11:55 PM 71.6 °F - 71.6 °F 100% 30.17 in 10.0 mi Calm Calm - N/A   Clear